SCP
0 0 0 0 0 0 0 0 0 0 0 0 0 0 0 0 0 0 0 0 0 0 0 0 0 0 0 0 0 0 0 0
0 0 0 0 0 0 0 0 0 0 0 0 0 0 0 0 0 0 0 0 0 0 0 0 0 0 0 0 0 0 0 0
0 0 0 0 0 0 0 0 0 0 0 0 0 0 0 0 0 0 0 0 0 0 0 0 0 0 0 0 0 0 0 0
0 0 0 0 0 0 0 0 0 0 0 0 0 0 0 0 0 0 0 0 0 0 0 0 0 0 0 0 0 0 0 0
0 0 0 0 0 0 0 0 0 0 0 0 0 0 0 0 0 0 0 0 0 0 0 0 0 0 0 0 0 0 0 0
0 0 0 0 0 0 0 0 0 0 0 0 0 0 0 0 0 0 0 0 0 0 0 0 0 0 0 0 0 0 0 0
0 0 0 0 0 0 0 0 0 0 0 0 0 0 0 0 0 0 0 0 0 0 0 0 -0 0 0 0 -0 -0 -0 -0
0 0 0 0 0 0 0 0 0 0 0 0 0 0 0 0 0 0 0 0 -0 -0 -0 -0 -0 0 0 0 -0 -0 -0 -0
0 0 0 0 0 0 0 0 0 0 0 0 0 0 0 0 0 0 0 0 0 0 0 0 0 0 0 0 0 0 0 0
0 0 0 0 0 0 0 0 0 0 0 0 0 0 0 0 0 0 0 0 0 0 0 0 0 0 0 0 0 0 0 -0
0 0 0 0 0 0 0 0 0 0 0 0 0 0 0 0 0 0 0 0 0 0 0 0 0 0 0 0 0 0 0 0
0 0 0 0 0 0 0 0 0 0 0 0 0 0 0 0 0 0 0 0 0 0 0 0 0 0 0 0 0 0 0 0
0 0 0 0 0 0 0 0 0 0 0 0 0 0 0 0 0 0 0 0 0 0 0 0 0 0 0 0 0 0 0 0
0 0 0 0 0 0 0 0 0 0 0 0 0 0 0 0 0 0 0 0 0 0 0 0 0 0 0 0 0 0 0 0
0 0 0 0 0 0 0 0 0 0 0 0 0 0 0 0 0 0 0 0 0 0 0 0 0 0 0 0 0 0 0 0
0 0 0 0 0 0 0 0 0 0 0 0 0 0 0 0 0 0 0 0 0 0 0 0 0 0 0 0 0 0 0 0
0 0 0 0 0 0 0 0 0 0 0 0 0 0 0 0 0 0 0 0 0 0 0 0 0 0 0 0 0 0 0 0
0 0 0 0 0 0 0 0 0 0 0 0 0 0 0 0 0 0 0 0 0 0 0 0 0 0 0 0 0 0 0 0
0 0 0 0 0 0 0 0 0 0 0 0 0 0 0 0 0 0 0 0 0 0 0 0 0 0 0 0 0 0 0 0
0 0 0 0 0 0 0 0 0 0 0 0 0 0 0 0 0 0 0 0 0 0 0 0 0 0 0 0 0 0 0 0
Wind_Speed_500mb
27 28 27 28 29 29 29 29 29 28 26 25 22 19 16 13 11 11 11 12 14 16 16 17 22 25 28 33 35 42 49 51
31 30 27 25 24 24 23 22 21 20 19 15 13 10 7 6 7 9 12 14 16 20 23 25 28 30 33 38 43 47 51 50
32 27 24 22 19 16 15 14 13 11 9 7 8 7 8 11 13 15 18 20 22 23 24 27 31 35 40 43 47 51 56 57
32 28 22 17 16 13 9 8 7 7 8 9 10 10 12 14 16 16 18 21 23 26 29 32 35 39 44 49 53 56 58 60
33 31 24 17 12 8 4 4 1 4 11 12 11 12 14 17 21 24 24 25 29 32 35 37 40 43 48 54 60 65 68 69
37 30 26 20 13 9 7 6 8 11 12 11 9 15 21 25 26 29 33 36 39 42 44 46 49 52 59 63 66 70 74 75
40 33 24 17 13 9 14 13 11 11 11 11 13 17 21 25 30 34 37 40 44 48 51 54 56 63 69 72 77 75 76 81
45 39 31 22 15 14 15 14 15 11 10 9 13 17 21 26 32 35 40 43 45 49 53 55 58 63 68 73 75 79 82 84
53 41 30 28 23 26 22 15 12 8 7 8 12 14 20 25 29 31 36 40 44 46 47 48 50 53 56 59 59 60 65 71
49 38 38 35 32 29 19 17 13 8 3 6 9 14 19 24 29 32 34 36 39 40 41 42 43 47 51 56 60 61 64 68
46 40 38 32 29 23 20 17 11 6 2 5 12 18 23 27 28 33 36 38 39 42 44 48 50 53 56 58 65 70 76 74
46 38 37 32 25 23 22 17 10 6 3 6 12 15 18 23 28 32 35 37 38 40 44 47 51 56 57 58 58 67 75 83
42 41 35 27 25 24 19 14 10 6 1 6 12 18 22 25 28 29 31 35 39 42 45 49 49 56 49 56 55 60 69 76
44 38 30 28 25 22 19 14 8 3 4 9 15 18 19 20 22 26 31 36 39 43 46 50 50 57 53 60 58 60 65 67
40 36 32 28 25 21 17 11 7 5 7 11 13 14 16 19 23 27 31 35 38 41 46 50 51 55 62 66 67 69 73 78
39 36 32 29 24 19 14 10 7 8 10 12 13 14 16 21 24 27 29 32 36 39 43 48 54 53 56 58 63 67 70 75
40 36 31 26 20 16 12 10 10 10 11 12 14 16 18 19 20 23 25 28 30 32 37 41 43 47 53 53 57 62 68 70
38 33 28 23 19 16 13 12 11 11 13 14 16 18 21 24 27 25 20 28 32 35 36 38 43 47 52 56 61 61 68 69
35 30 25 20 16 13 12 12 12 13 14 16 17 20 23 26 29 33 39 41 37 35 41 40 41 46 51 59 64 66 63 65
32 28 22 18 16 14 13 12 12 14 15 16 19 22 25 28 31 34 37 41 45 49 44 47 44 43 49 55 61 67 71 73
Wind_Direction_500mb
135 126 118 113 108 107 104 101 97 95 93 92 91 88 83 73 58 42 25 6 352 332 321 309 305 305 300 300 299 295 288 284
145 136 126 119 114 109 106 103 104 100 95 95 92 80 58 34 21 4 351 334 327 326 327 322 318 313 306 302 299 293 292 293
156 148 139 132 122 112 108 106 100 91 75 55 31 13 3 359 356 348 345 343 337 332 327 323 317 310 304 300 299 298 296 294
165 164 162 152 143 134 113 76 48 21 14 8 3 11 5 359 356 351 348 339 334 328 325 324 320 316 309 307 304 302 300 300
175 177 176 171 163 149 137 120 174 337 342 340 345 351 2 1 354 351 350 347 346 345 340 336 331 323 317 312 309 306 306 306
186 188 193 197 209 226 271 304 326 328 328 331 335 357 358 6 4 3 3 1 359 356 355 351 345 339 334 329 325 321 316 314
199 202 205 215 222 244 264 276 293 300 303 330 352 356 3 7 9 8 5 5 4 360 359 356 353 347 342 339 335 332 329 325
199 201 206 217 234 252 255 261 272 291 324 336 0 18 13 16 15 12 11 8 5 3 2 360 355 349 343 338 336 333 331 328
200 201 205 216 230 253 256 267 261 262 292 343 18 21 24 22 20 16 14 10 8 6 5 2 355 347 339 334 333 330 329 330
203 205 219 225 228 235 234 233 235 241 284 13 23 28 26 22 14 11 10 10 7 2 357 354 349 346 343 340 338 337 337 338
201 205 214 215 213 212 218 217 215 221 181 44 33 26 17 12 8 7 4 0 359 356 354 351 347 347 346 346 342 338 337 339
201 203 212 211 203 204 206 206 195 170 105 32 23 15 9 1 354 353 354 349 345 343 345 346 346 348 349 348 345 340 335 340
195 200 201 203 203 201 198 192 184 179 92 2 358 358 354 346 343 340 340 340 339 340 342 345 346 349 349 345 344 341 337 339
195 198 202 203 197 199 199 194 193 210 329 339 341 337 333 334 336 338 339 342 344 345 344 344 344 346 345 342 341 339 336 336
195 199 198 195 195 198 196 199 214 267 305 313 315 324 335 341 341 341 342 342 341 340 340 340 340 343 341 339 340 338 338 336
194 195 195 194 193 194 198 214 243 271 289 301 316 329 337 339 344 346 342 340 340 338 335 336 336 342 337 337 338 338 336 335
190 191 192 192 193 199 210 230 252 274 294 306 316 324 329 332 338 339 337 332 329 328 329 330 327 329 332 333 337 337 334 337
187 186 188 188 198 212 227 247 267 284 293 303 314 320 324 328 327 325 328 331 329 328 328 326 326 325 327 329 333 334 332 339
182 183 186 195 212 231 247 261 272 284 293 305 312 318 323 325 328 331 331 332 331 329 328 329 328 326 329 330 328 328 332 337
183 187 194 207 221 237 250 261 272 280 290 299 309 317 320 325 327 327 328 328 329 329 329 328 329 330 333 329 330 332 335 336
Wind_Speed_850mb
27 28 27 28 29 29 29 29 29 28 26 25 22 19 16 13 11 11 11 12 14 16 16 17 22 25 28 33 35 42 49 51
31 30 27 25 24 24 23 22 21 20 19 15 13 10 7 6 7 9 12 14 16 20 23 25 28 30 33 38 43 47 51 50
32 27 24 22 19 16 15 14 13 11 9 7 8 7 8 11 13 15 18 20 22 23 24 27 31 35 40 43 47 51 56 57
32 28 22 17 16 13 9 8 7 7 8 9 10 10 12 14 16 16 18 21 23 26 29 32 35 39 44 49 53 56 58 60
33 31 24 17 12 8 4 4 1 4 11 12 11 12 14 17 21 24 24 25 29 32 35 37 40 43 48 54 60 65 68 69
37 30 26 20 13 9 7 6 8 11 12 11 9 15 21 25 26 29 33 36 39 42 44 46 49 52 59 63 66 70 74 75
40 33 24 17 13 9 14 13 11 11 11 11 13 17 21 25 30 34 37 40 44 48 51 54 56 63 69 72 77 75 76 81
45 39 31 22 15 14 15 14 15 11 10 9 13 17 21 26 32 35 40 43 45 49 53 55 58 63 68 73 75 79 82 84
53 41 30 28 23 26 22 15 12 8 7 8 12 14 20 25 29 31 36 40 44 46 47 48 50 53 56 59 59 60 65 71
49 38 38 35 32 29 19 17 13 8 3 6 9 14 19 24 29 32 34 36 39 40 41 42 43 47 51 56 60 61 64 68
46 40 38 32 29 23 20 17 11 6 2 5 12 18 23 27 28 33 36 38 39 42 44 48 50 53 56 58 65 70 76 74
46 38 37 32 25 23 22 17 10 6 3 6 12 15 18 23 28 32 35 37 38 40 44 47 51 56 57 58 58 67 75 83
42 41 35 27 25 24 19 14 10 6 1 6 12 18 22 25 28 29 31 35 39 42 45 49 49 56 49 56 55 60 69 76
44 38 30 28 25 22 19 14 8 3 4 9 15 18 19 20 22 26 31 36 39 43 46 50 50 57 53 60 58 60 65 67
40 36 32 28 25 21 17 11 7 5 7 11 13 14 16 19 23 27 31 35 38 41 46 50 51 55 62 66 67 69 73 78
39 36 32 29 24 19 14 10 7 8 10 12 13 14 16 21 24 27 29 32 36 39 43 48 54 53 56 58 63 67 70 75
40 36 31 26 20 16 12 10 10 10 11 12 14 16 18 19 20 23 25 28 30 32 37 41 43 47 53 53 57 62 68 70
38 33 28 23 19 16 13 12 11 11 13 14 16 18 21 24 27 25 20 28 32 35 36 38 43 47 52 56 61 61 68 69
35 30 25 20 16 13 12 12 12 13 14 16 17 20 23 26 29 33 39 41 37 35 41 40 41 46 51 59 64 66 63 65
32 28 22 18 16 14 13 12 12 14 15 16 19 22 25 28 31 34 37 41 45 49 44 47 44 43 49 55 61 67 71 73
Wind_Direction_850mb
135 126 118 113 108 107 104 101 97 95 93 92 91 88 83 73 58 42 25 6 352 332 321 309 305 305 300 300 299 295 288 284
145 136 126 119 114 109 106 103 104 100 95 95 92 80 58 34 21 4 351 334 327 326 327 322 318 313 306 302 299 293 292 293
156 148 139 132 122 112 108 106 100 91 75 55 31 13 3 359 356 348 345 343 337 332 327 323 317 310 304 300 299 298 296 294
165 164 162 152 143 134 113 76 48 21 14 8 3 11 5 359 356 351 348 339 334 328 325 324 320 316 309 307 304 302 300 300
175 177 176 171 163 149 137 120 174 337 342 340 345 351 2 1 354 351 350 347 346 345 340 336 331 323 317 312 309 306 306 306
186 188 193 197 209 226 271 304 326 328 328 331 335 357 358 6 4 3 3 1 359 356 355 351 345 339 334 329 325 321 316 314
199 202 205 215 222 244 264 276 293 300 303 330 352 356 3 7 9 8 5 5 4 360 359 356 353 347 342 339 335 332 329 325
199 201 206 217 234 252 255 261 272 291 324 336 0 18 13 16 15 12 11 8 5 3 2 360 355 349 343 338 336 333 331 328
200 201 205 216 230 253 256 267 261 262 292 343 18 21 24 22 20 16 14 10 8 6 5 2 355 347 339 334 333 330 329 330
203 205 219 225 228 235 234 233 235 241 284 13 23 28 26 22 14 11 10 10 7 2 357 354 349 346 343 340 338 337 337 338
201 205 214 215 213 212 218 217 215 221 181 44 33 26 17 12 8 7 4 0 359 356 354 351 347 347 346 346 342 338 337 339
201 203 212 211 203 204 206 206 195 170 105 32 23 15 9 1 354 353 354 349 345 343 345 346 346 348 349 348 345 340 335 340
195 200 201 203 203 201 198 192 184 179 92 2 358 358 354 346 343 340 340 340 339 340 342 345 346 349 349 345 344 341 337 339
195 198 202 203 197 199 199 194 193 210 329 339 341 337 333 334 336 338 339 342 344 345 344 344 344 346 345 342 341 339 336 336
195 199 198 195 195 198 196 199 214 267 305 313 315 324 335 341 341 341 342 342 341 340 340 340 340 343 341 339 340 338 338 336
194 195 195 194 193 194 198 214 243 271 289 301 316 329 337 339 344 346 342 340 340 338 335 336 336 342 337 337 338 338 336 335
190 191 192 192 193 199 210 230 252 274 294 306 316 324 329 332 338 339 337 332 329 328 329 330 327 329 332 333 337 337 334 337
187 186 188 188 198 212 227 247 267 284 293 303 314 320 324 328 327 325 328 331 329 328 328 326 326 325 327 329 333 334 332 339
182 183 186 195 212 231 247 261 272 284 293 305 312 318 323 325 328 331 331 332 331 329 328 329 328 326 329 330 328 328 332 337
183 187 194 207 221 237 250 261 272 280 290 299 309 317 320 325 327 327 328 328 329 329 329 328 329 330 333 329 330 332 335 336